User: anonymous   Login
Location: Unspecified
(0.0000°N, 0.0000°E)
Time: 04:51:18
(UTC+01:00)
Language:

Cosmos 1295 Rocket - Orbit

View from above orbital plane
View from above orbital plane
View from above satellite
View from above satellite

Ground track
Ground track

The orbit data is extracted from the following two-line orbital elements,

1 12682U 81077B   16043.93872323 -.00000022 +00000-0 -36348-4 0  9997
2 12682 082.9161 022.7961 0032657 279.6617 137.6359 13.78512080735055
Epoch (UTC): 12 February 2016 22:31:45
Eccentricity: 0.0032657
inclination: 82.9161°
perigee height: 945 km
apogee height: 993 km
right ascension of ascending node: 22.7961°
argument of perigee: 279.6617°
revolutions per day: 13.78512080
mean anomaly at epoch: 137.6359°
orbit number at epoch: 73505

The dashed part of the orbit path shows where the satellite is in the earth's shadow,  

DLR